Orbital Elements at Epoch 2459200.5 (2020-Dec-17.0) TDB
Reference: JPL 25 (heliocentric ecliptic J2000)
Element | Value | Uncertainty (1-sigma) | Units |
e | .1662286403642319 | 4.6098e-08 | |
a | 2.522946276314135 | 1.0647e-08 | au |
q | 2.103560347090435 | 1.1645e-07 | au |
i | 2.262387774043719 | 5.3976e-06 | deg |
node | 287.186336879322 | 0.00011515 | deg |
peri | 85.6860277850048 | 0.00011654 | deg |
M | 176.6010878926462 | 1.7656e-05 | deg |
tp | 2458482.455591268180 (2018-Dec-29.95559127) | 7.0647e-05 | TDB |
period | 1463.728169673519 4.01 | 9.2659e-06 2.537e-08 | d yr |
n | .2459473059675398 | 1.5569e-09 | deg/d |
Q | 2.942332205537836 | 1.2417e-08 | au |
|
| | Orbit Determination Parameters
Additional Information
|